Location: Alsip
(41.6689°N, 87.7387°W)
Time: 23:29:54
(UTC+00:00)

X-37B - Pass Details

Date: 01 August 2021
Orbit: 381 x 393 km, 45.0° (Epoch: 29 August)

Event Time Altitude Azimuth Distance (km) Brightness Sun altitude
Exits shadow 09:40:49 19° 222° (SW) 997 2.0 -11.2°
Maximum altitude 09:42:50 48° 153° (SSE) 502 1.0 -10.9°
Drops below altitude 10° 09:45:53 10° 77° (ENE) 1,398 4.6 -10.4°
Sets 09:47:59 0° 72° (ENE) 2,254 6.1 -10.1°
